Location: Franzen
(48.6167°N, 15.3833°E)
Time: 13:33:28
(UTC+00:00)

SeaSat 1 - Pass Details

Date: 22 April 2021
Orbit: 744 x 747 km, 108.0° (Epoch: 16 May)

Event Time Altitude Azimuth Distance (km) Brightness Sun altitude
Rises 23:22:54 0° 22° (NNE) 3,204 6.9 -28.6°
Reaches altitude 10° 23:25:29 10° 10° (N) 2,276 5.9 -28.5°
Maximum altitude 23:29:31 26° 315° (NW) 1,459 4.2 -28.4°
Enters shadow 23:31:04 22° 287° (WNW) 1,607 4.2 -28.4°
